DECAYED

COSMOS 2251 DEB, 35974 (Decayed)

Orbit data source: Space-Track

COSMOS 2251 DEB, 35974 was space debris in LEO originally from a launch on Wed, 16 Jun 1993 UTC launched from the Plesetsk Missile And Space Complex (PKMTR). The debris from Iridium 33, an American commercial communications satellite, has been tracked extensively since its accidental collision with the defunct Russian satellite Cosmos 2251 in 2009. This event, occurring at high speed in low Earth orbit (LEO), generated thousands of pieces of space debris, significantly increasing the risk of further collisions. The Iridium 33 debris cloud has impacted space traffic management and orbital debris mitigation strategies, making it a subject of ongoing study in space situational awareness.

Not visible in the next 10 days
Identifier
35974, 1993-036AVQ
Orbit
Decayed
Country
Flag of CISCIS
Related business
Manufacturer
Unknown
Mission
Decayed spacecraft
Bus & Motor
Unknown
Mass
Unknown
Launch date (UTC)
1993-06-16 (33 years ago)
Launch vehicle
Unknown
Launch site
Plesetsk Missile And Space Complex (PKMTR)
Object type
Payload
Rocket body
Debris
Shape & HBR
Unknown shape, 0.1 m
Radar Cross Section
Small (<0.1 m²)

Expand to show TLE details & history
Last TLE update: 1 year ago

TLE from 1 year ago
0 COSMOS 2251 DEB
1 35974U 93036AVQ 25104.58529325  .00261653  00000-0  95359-2 0  9996
2 35974  73.9987  58.5163 0020946 218.1403 141.8317 15.26792281625822
Epoch: 2025-04-14T14:02Z
TLE epoch observation values (Epoch: 2025-04-14T14:02:49.336Z)
Latitude
-0.00002°
Longitude
4.81259°
Altitude
499.443 km
Speed
7.609 km/s
True Right ascension
03h 54m 03s
True Declination
0° 00' 00"
Sunlit
Object was in daylight at epoch
Visualization orbit readout
Latitude
Unknown
Longitude
Unknown
Altitude
Unknown
Speed
Unknown
Apparent Right ascension
Unknown
Apparent Declination
Unknown
Sunlit
N/A
Visualization observer readout
Local Sidereal Time
17:50:25
Azimuth
Unknown
Elevation
Unknown
Doppler factor
Unknown
Orbital elements
Apogee altitude
497.308 km
Perigee altitude
468.566 km
Semi-major axis
6,861.074 km
Eccentricity
0.00209
Inclination
73.9987°
RAAN
58.5163°
Arg. of periapsis
218.1403°
True anomaly
141.97972°
Mean anomaly
141.8317°
Eccentric anomaly
141.90574°
Mean motion
3.81905 °/min
Orbital period
94.26 mins
BSTAR
0.0095359
Loading maneuver chart data...
Computing Atmospheric mass density...

Documentation

Showing up to 5 results
|